Preview of NWS' New Version of Forecast
This preview is not operational and should not be used for support decisions.

Regional Weather Roundup (RWR)

Issued by National Weather Service (NWS)

                            
000
ASUS44 KMEG 200310
RWRTN 
TENNESSEE HOURLY STATE WEATHER ROUNDUP
NATIONAL WEATHER SERVICE MEMPHIS TN
1000 PM CDT MON AUG 19 2019

TNZ002-004-019-021-049-052-054-088>092-200400-
WEST TENNESSEE
  
CITY           SKY/WX    TMP DP  RH WIND       PRES   REMARKS
MEMPHIS INTL   FAIR      86  75  69 SE5       30.02R HX  95           
NWS MEMPHIS      N/A     80 N/A N/A MISG        N/A                   
JACKSON        FAIR      78  77  96 CALM      30.05R                  
DYERSBURG      FAIR      79  77  94 CALM      30.04R                  
SOMERVILLE     CLEAR     79  77  94 CALM      30.03R                  
COVINGTON      CLEAR     79  79 100 CALM      30.03R                  
UNION CITY     CLEAR     79  77  94 CALM      30.02R                  
BOLIVAR        CLEAR     79  75  89 CALM      30.04R                  
PARIS          CLEAR     77  73  88 CALM      30.04R                  
HUNTINGDON     CLEAR     81  75  83 CALM      30.04S                  
LEXINGTON      CLEAR     77  75  94 CALM      30.04S                  
SAVANNAH       PTCLDY    77  77 100 SE5       30.06R                  
$$

TNZ008-025-027-028-033-062-065-066-200400-
NORTH MIDDLE TENNESSEE
  
CITY           SKY/WX    TMP DP  RH WIND       PRES   REMARKS
NASHVILLE      FAIR      82  70  66 S6        30.07R                  
DICKSON        CLEAR     79  72  78 CALM      30.06R                  
PORTLAND       CLEAR     77  72  83 CALM      30.06R                  
CLARKSVILLE    FAIR      80  72  76 CALM      30.04R                  
LEBANON        CLEAR     81  72  74 S3        30.05R                  
SMYRNA         FAIR      80  71  74 CALM      30.08R                  
MURFREESBORO   MOCLDY    81  70  69 S3        30.05R                  
COOKEVILLE     CLEAR     75  72  88 CALM      30.10R                  
LIVINGSTON     CLEAR     79  68  69 SW3       30.11R                  
GALLATIN       CLEAR     79  72  78 CALM      30.08R                  
CROSSVILLE     FAIR      69  66  90 CALM      30.16R                  
ROCKWOOD       CLEAR     73  68  83 SW6       30.14R                  
$$

TNZ061-075-076-078-094-096-097-200400-
SOUTH MIDDLE TENNESSEE
  
CITY           SKY/WX    TMP DP  RH WIND       PRES   REMARKS
LAWRENCEBURG   PTCLDY    75  72  88 S6G14     30.09R                  
LEWISBURG      CLEAR     77  72  83 CALM      30.06R                  
FAYETTEVILLE   CLEAR     77  70  78 CALM      30.10R                  
TULLAHOMA      CLEAR     75  68  78 CALM      30.10R                  
WINCHESTER     CLEAR     73  70  88 E6        30.11R                  
MCMINNVILLE    CLEAR     73  70  88 CALM      30.10R                  
COLUMBIA       CLEAR     81  79  94 W5        30.05R                  
SHELBYVILLE    CLEAR     73  70  88 E3        30.08R                  
$$

TNZ017-018-042-046-047-200400-
NORTHEAST TENNESSEE
  
CITY           SKY/WX    TMP DP  RH WIND       PRES   REMARKS
TRI CITIES     FAIR      72  65  78 CALM      30.14R                  
ELIZABETHTON   FAIR      72  68  88 CALM      30.15R                  
GREENEVILLE    CLEAR     77  66  69 CALM      30.13R                  
$$

TNZ012-013-036-069-073-074-200400-
CENTRAL EAST TENNESSEE
  
CITY           SKY/WX    TMP DP  RH WIND       PRES   REMARKS
KNOXVILLE      FAIR      79  66  64 W7        30.09R                  
OAK RIDGE      FAIR      81  68  64 SW3       30.12R                  
DOWNTOWN KNOXV CLEAR     72  70  94 CALM      30.10R                  
GATLINBURG     CLEAR     73  72  94 CALM      30.10R                  
MORRISTOWN     PTCLDY    77  68  73 CALM      30.11R                  
JACKSBORO      CLEAR     75  72  88 CALM      30.14R                  
$$

TNZ083-085-099-200400-
SOUTHEAST TENNESSEE
  
CITY           SKY/WX    TMP DP  RH WIND       PRES   REMARKS
CHATTANOOGA    FAIR      78  71  79 CALM      30.10R                  
DAYTON         MOCLDY    77  72  83 W3        30.09R                  
$$

SKY/WX REPORTED AS FAIR MEANS FEW OR NO CLOUDS BELOW
12 THOUSAND FEET.